Fort Knox, KY

9:05 PM EST on November 21, 2019 (GMT -0500)
Godman Army Air Field

Weather History for KFTK - October, 2019

Change the Weather History Date:

Sunday, October 20, 2019

  Actual Average Record
Temperature  
Mean Temperature 64 °F -  
Max Temperature 72 °F 64 °F 84 °F (2005)
Min Temperature 55 °F 44 °F 30 °F (1996)
Degree Days  
Heating Degree Days 1    
Growing Degree Days 14 (Base 50)    
Moisture  
Dew Point 57 °F    
Average Humidity 88    
Maximum Humidity 100    
Minimum Humidity 51    
Precipitation  
Precipitation 0.00 in - - ()
Sea Level Pressure  
Sea Level Pressure 29.88 in    
Wind  
Wind Speed 5 mph (South)    
Max Wind Speed 8 mph    
Max Gust Speed -    
Visibility 10 miles    
Events Rain    
Averages and records for this station are not official NWS values.
T = Trace of Precipitation, MM = Missing Value Source: NWS Daily Summary

Daily Weather History Graph

Daily Weather History Graph

Search for Another Location

Airport or City:

Astronomy

Oct. 20, 2019 Rise Set
Actual Time 7:57 AM EDT 6:59 PM EDT
Civil Twilight 7:30 AM EDT 7:26 PM EDT
Nautical Twilight 6:59 AM EDT 7:56 PM EDT
Astronomical Twilight 6:29 AM EDT 8:27 PM EDT
Moon No Moon Rise 2:20 PM EDT (10/20)
Length of Visible Light 11h 56m
Length of Day
11h 02m
Waning Gibbous, 59% of the Moon is Illuminated
Oct 20
Waning Gibbous
Oct 21
Last Quarter
Oct 27
New
Nov 4
First Quarter
Nov 12
Full

Hourly Weather History & Observations

Time (EDT) Temp. Dew Point Humidity Pressure Visibility Wind Dir Wind Speed Gust Speed Precip Events Conditions
12:40 AM 60.8 °F 57.2 °F 88% 29.84 in 10.0 mi SSW 6.9 mph - N/A Rain Light Rain
12:56 AM 59.7 °F 57.9 °F 94% 29.83 in 10.0 mi SSW 5.8 mph - 0.00 in   Overcast
1:11 AM 59.0 °F 59.0 °F 100% 29.83 in 10.0 mi South 4.6 mph - N/A   Overcast
1:26 AM 59.0 °F 59.0 °F 100% 29.83 in 10.0 mi South 4.6 mph - N/A   Overcast
1:41 AM 59.0 °F 59.0 °F 100% 29.82 in 10.0 mi SSE 4.6 mph - N/A   Mostly Cloudy
1:56 AM 58.5 °F 58.5 °F 100% 29.82 in 10.0 mi South 4.6 mph - N/A   Mostly Cloudy
2:11 AM 59.0 °F 59.0 °F 100% 29.82 in 10.0 mi South 4.6 mph - N/A   Overcast
2:41 AM 59.0 °F 59.0 °F 100% 29.82 in 10.0 mi South 3.5 mph - N/A   Overcast
2:56 AM 58.6 °F 58.3 °F 99% 29.82 in - SSW 3.5 mph - N/A   Unknown
3:26 AM 59.0 °F 59.0 °F 100% 29.82 in 10.0 mi South 3.5 mph - N/A   Overcast
3:56 AM 58.5 °F 58.5 °F 100% 29.82 in 10.0 mi South 4.6 mph - N/A   Overcast
4:56 AM 58.5 °F 58.1 °F 99% 29.83 in 10.0 mi SSW 3.5 mph - N/A   Overcast
5:56 AM 58.3 °F 58.3 °F 100% 29.84 in 10.0 mi Calm Calm - N/A   Overcast
6:39 AM 59.0 °F 59.0 °F 100% 29.86 in 10.0 mi Calm Calm - N/A   Overcast
6:56 AM 57.9 °F 57.9 °F 100% 29.86 in 10.0 mi Calm Calm - N/A   Overcast
7:11 AM 57.2 °F 57.2 °F 100% 29.87 in 10.0 mi SW 4.6 mph - N/A   Overcast
7:26 AM 59.0 °F 59.0 °F 100% 29.87 in 10.0 mi WSW 4.6 mph - N/A   Overcast
7:41 AM 59.0 °F 59.0 °F 100% 29.87 in 10.0 mi West 4.6 mph - N/A   Overcast
7:56 AM 58.3 °F 58.3 °F 100% 29.87 in 10.0 mi West 5.8 mph - N/A   Overcast
8:11 AM 59.0 °F 59.0 °F 100% 29.87 in 10.0 mi West 6.9 mph - N/A   Overcast
8:26 AM 59.0 °F 59.0 °F 100% 29.87 in 10.0 mi Calm Calm - N/A   Overcast
8:56 AM 58.3 °F 58.3 °F 100% 29.90 in 10.0 mi SW 5.8 mph - N/A   Overcast
9:12 AM 59.0 °F 59.0 °F 100% 29.92 in 10.0 mi WSW 8.1 mph - N/A   Overcast
9:27 AM 59.0 °F 59.0 °F 100% 29.91 in 10.0 mi WSW 4.6 mph - N/A   Overcast
9:56 AM 60.4 °F 57.6 °F 90% 29.92 in 10.0 mi SW 4.6 mph - N/A   Overcast
10:41 AM 62.6 °F 55.4 °F 77% 29.92 in 10.0 mi SSE 4.6 mph - N/A   Scattered Clouds
10:56 AM 63.3 °F 55.6 °F 76% 29.92 in 10.0 mi Calm Calm - N/A   Clear
11:56 AM 66.6 °F 55.6 °F 68% 29.92 in 10.0 mi SE 3.5 mph - N/A   Clear
12:56 PM 68.5 °F 55.4 °F 63% 29.92 in 10.0 mi SSE 4.6 mph - N/A   Partly Cloudy
1:56 PM 70.0 °F 55.4 °F 60% 29.91 in 10.0 mi East 4.6 mph - N/A   Clear
2:56 PM 71.1 °F 54.1 °F 55% 29.90 in 10.0 mi SSE 6.9 mph - N/A   Clear
3:56 PM 71.4 °F 52.3 °F 51% 29.90 in 10.0 mi South 5.8 mph - N/A   Partly Cloudy
4:56 PM 71.6 °F 52.5 °F 51% 29.90 in 10.0 mi SE 4.6 mph - N/A   Clear
5:56 PM 70.3 °F 52.9 °F 54% 29.90 in 10.0 mi SSE 8.1 mph - N/A   Clear
6:56 PM 66.9 °F 54.3 °F 64% 29.91 in 10.0 mi SSE 6.9 mph - N/A   Clear
7:56 PM 64.4 °F 54.3 °F 70% 29.92 in 10.0 mi SE 4.6 mph - N/A   Clear
8:32 PM 60.8 °F 53.6 °F 77% 29.95 in 10.0 mi South 3.5 mph - N/A   Clear
8:56 PM 59.7 °F 54.1 °F 82% 29.95 in 10.0 mi Calm Calm - N/A   Clear
9:56 PM 59.4 °F 54.9 °F 85% 29.94 in 10.0 mi East 4.6 mph - N/A   Clear
10:56 PM 58.3 °F 55.0 °F 89% 29.94 in 10.0 mi Calm Calm - N/A   Clear
11:56 PM 55.6 °F 55.2 °F 99% 29.94 in 10.0 mi Calm Calm - N/A   Clear